Live Position
Loading 3D Globe...
About Capella 20
Group: 3 satellites
Description loading...
Upcoming Passes
Passes for default location (London). Set your location on the main map for personalized predictions.
Altitude History
Loading altitude history...
No altitude history available
Two-Line Element Set
1 68501U 26067CP 26105.67227352 .00003807 00000-0 38844-3 0 9997
2 68501 97.7588 64.9041 0002004 211.8179 148.2918 14.91227302 2405
Epoch: Apr 15, 2026 •
Age: 20 hours
Current Status
Altitude 602.3 km
Velocity 7.56 km/s
Sub-Earth Point 44.98°N,
38.36°E
Launch Date Mar 30, 2026
Age 16 days
Type other
Launch Group
Falcon 9 •
Starlink Group 10-44 •
36 satellites
ERMIS 2
68502
Starlink 37262 68503
Starlink 36292 68504
Starlink 37260 68505
Starlink 37280 68506
Starlink 37286 68507
Starlink 37262 68508
Starlink 36292 68509
Starlink 37260 68510
Starlink 37280 68511
Starlink 37286 68512
Starlink 36250 68513
Starlink 37251 68514
Starlink 36293 68515
Starlink 36290 68516
Starlink 36298 68517
Starlink 36857 68518
Starlink 36326 68519
Starlink 37126 68520
Starlink 36347 68521
...and 15 more
Technical Details
Classification Payload
Mass 180.00 kg
Dry Mass 150.00 kg
Total Mass 180.00 kg
Length 0.50 m
Diameter 0.30 m
Span 3.50 m
Shape Box+ pan + Dish+boom
Manufacturer CAPSP
Bus Type Acadia
Phase Status In Orbit
Owner/State CAPSP/US
Most Searched
Loading...